Location: Unspecified
(0.0000°N, 0.0000°E)
Time: 20:21:59
(UTC+00:00)

BlueWalker 3 - Pass Details

Date: 28 March 2023
Orbit: 497 x 514 km, 53.2° (Epoch: 29 March)

Event Time Altitude Azimuth Distance (km) Brightness Sun altitude
Exits shadow 04:51:16 10° 340° (NNW) 1,701 4.4 -18.5°
Reaches altitude 10° 04:51:19 10° 341° (NNW) 1,682 4.4 -18.5°
Maximum altitude 04:55:00 49° 56° (NE) 645 2.8 -17.5°
Drops below altitude 10° 04:58:43 10° 132° (SE) 1,693 5.2 -16.6°
Sets 05:00:56 0° 137° (SE) 2,580 6.2 -16.1°
